Location: Arbon
(43.0005°N, 0.7472°E)
Time: 23:23:34
(UTC+00:00)

Courier 1B Rocket - Pass Details

Date: 03 December 2020
Orbit: 920 x 1202 km, 28.2° (Epoch: 22 January)

Event Time Altitude Azimuth Distance (km) Brightness Sun altitude
Rises 09:10:31 0° 254° (WSW) 4,080 8.0 15.5°
Reaches altitude 10° 09:16:14 10° 221° (SW) 3,072 7.8 16.2°
Maximum altitude 09:18:03 11° 207° (SSW) 2,981 8.0 16.4°
Drops below altitude 10° 09:19:51 10° 193° (SSW) 3,032 8.3 16.6°
Sets 09:25:21 0° 160° (SSE) 3,915 9.7 17.1°
